Time,TemperatureF,DewpointF,PressureIn,WindDirection,WindDirectionDegrees,WindSpeedMPH,WindSpeedGustMPH,Humidity,HourlyPrecipIn,Conditions,Clouds,dailyrainin,SoftwareType,DateUTC
2013-11-30 00:01:00,30.1,25.8,30.41,NE,37,0.0,2.2,84,0.00,,,0.00,VWS V13.01,2013-11-30 06:01:00,
2013-11-30 00:06:00,29.9,25.9,30.41,NE,45,2.7,3.1,85,0.00,,,0.00,VWS V13.01,2013-11-30 06:06:00,
2013-11-30 00:11:00,29.9,26.8,30.41,NNE,31,2.7,2.7,88,0.00,,,0.00,VWS V13.01,2013-11-30 06:11:00,
2013-11-30 00:16:00,29.9,26.8,30.41,NE,39,3.1,3.1,88,0.00,,,0.00,VWS V13.01,2013-11-30 06:16:00,
2013-11-30 00:21:00,29.9,26.8,30.41,NE,50,2.2,2.7,88,0.00,,,0.00,VWS V13.01,2013-11-30 06:21:00,
2013-11-30 00:26:00,29.9,26.8,30.44,NE,50,2.2,2.7,88,0.00,,,0.00,VWS V13.01,2013-11-30 06:26:00,
2013-11-30 00:31:00,30.1,27.2,30.44,NE,40,2.7,2.7,89,0.00,,,0.00,VWS V13.01,2013-11-30 06:31:00,
2013-11-30 00:36:00,29.9,26.5,30.44,NE,40,2.7,2.7,87,0.00,,,0.00,VWS V13.01,2013-11-30 06:36:00,
2013-11-30 00:41:00,29.7,26.6,30.41,NE,40,2.7,2.7,88,0.00,,,0.00,VWS V13.01,2013-11-30 06:41:00,
2013-11-30 00:46:00,29.5,26.1,30.41,NE,40,2.7,2.7,87,0.00,,,0.00,VWS V13.01,2013-11-30 06:46:00,
2013-11-30 00:51:00,29.2,25.8,30.41,ENE,59,2.2,2.2,87,0.00,,,0.00,VWS V13.01,2013-11-30 06:51:00,
2013-11-30 00:56:00,29.2,26.3,30.41,ENE,59,2.7,2.7,89,0.00,,,0.00,VWS V13.01,2013-11-30 06:56:00,
2013-11-30 01:01:00,29.3,27.3,30.41,ENE,57,2.2,2.2,92,0.00,,,0.00,VWS V13.01,2013-11-30 07:01:00,
2013-11-30 01:06:00,29.3,27.0,30.41,ENE,57,2.2,2.2,91,0.00,,,0.00,VWS V13.01,2013-11-30 07:06:00,
2013-11-30 01:11:00,29.7,27.7,30.41,ENE,57,2.7,2.7,92,0.00,,,0.00,VWS V13.01,2013-11-30 07:11:00,
2013-11-30 01:16:00,29.7,26.9,30.41,NE,39,2.7,2.7,89,0.00,,,0.00,VWS V13.01,2013-11-30 07:16:00,
2013-11-30 01:21:00,29.5,26.4,30.41,NE,39,0.0,0.0,88,0.00,,,0.00,VWS V13.01,2013-11-30 07:21:00,
2013-11-30 01:26:00,29.3,26.2,30.41,NE,39,0.0,0.0,88,0.00,,,0.00,VWS V13.01,2013-11-30 07:26:00,
2013-11-30 01:31:00,29.5,27.2,30.41,NE,39,0.0,0.0,91,0.00,,,0.00,VWS V13.01,2013-11-30 07:31:00,
2013-11-30 01:36:00,29.3,26.5,30.41,NE,39,0.0,0.0,89,0.00,,,0.00,VWS V13.01,2013-11-30 07:36:00,
2013-11-30 01:41:00,29.7,27.4,30.41,NE,39,0.0,0.0,91,0.00,,,0.00,VWS V13.01,2013-11-30 07:41:00,
2013-11-30 01:46:00,29.7,26.9,30.44,NE,39,0.0,0.0,89,0.00,,,0.00,VWS V13.01,2013-11-30 07:46:00,
2013-11-30 01:51:00,29.5,25.9,30.44,NE,39,0.0,0.0,86,0.00,,,0.00,VWS V13.01,2013-11-30 07:51:00,
2013-11-30 01:56:00,29.2,25.8,30.44,NE,39,0.0,0.0,87,0.00,,,0.00,VWS V13.01,2013-11-30 07:56:00,
2013-11-30 02:01:00,29.2,26.1,30.44,NE,39,0.0,0.0,88,0.00,,,0.00,VWS V13.01,2013-11-30 08:01:00,
2013-11-30 02:06:00,29.2,26.6,30.44,NE,39,0.0,0.0,90,0.00,,,0.00,VWS V13.01,2013-11-30 08:06:00,
2013-11-30 02:11:00,29.0,26.4,30.44,NE,39,0.0,0.0,90,0.00,,,0.00,VWS V13.01,2013-11-30 08:11:00,
2013-11-30 02:16:00,29.0,26.4,30.41,NE,39,0.0,0.0,90,0.00,,,0.00,VWS V13.01,2013-11-30 08:16:00,
2013-11-30 02:21:00,28.8,26.5,30.41,NE,39,0.0,0.0,91,0.00,,,0.00,VWS V13.01,2013-11-30 08:21:00,
2013-11-30 02:26:00,28.8,26.5,30.44,NE,39,0.0,0.0,91,0.00,,,0.00,VWS V13.01,2013-11-30 08:26:00,
2013-11-30 02:31:00,28.8,26.8,30.44,NE,39,0.0,0.0,92,0.00,,,0.00,VWS V13.01,2013-11-30 08:31:00,
2013-11-30 02:36:00,29.0,27.7,30.44,NE,39,0.0,0.0,95,0.00,,,0.00,VWS V13.01,2013-11-30 08:36:00,
2013-11-30 02:41:00,29.0,27.0,30.44,NE,39,0.0,0.0,92,0.00,,,0.00,VWS V13.01,2013-11-30 08:41:00,
2013-11-30 02:46:00,28.8,26.2,30.41,NE,39,0.0,0.0,90,0.00,,,0.00,VWS V13.01,2013-11-30 08:46:00,
2013-11-30 02:51:00,28.6,26.1,30.41,NE,39,0.0,0.0,90,0.00,,,0.00,VWS V13.01,2013-11-30 08:51:00,
2013-11-30 02:56:00,28.6,26.1,30.44,NE,39,0.0,0.0,90,0.00,,,0.00,VWS V13.01,2013-11-30 08:56:00,
2013-11-30 03:01:00,28.4,26.1,30.44,NE,39,0.0,0.0,91,0.00,,,0.00,VWS V13.01,2013-11-30 09:01:00,
2013-11-30 03:06:00,28.3,26.2,30.44,NE,39,2.2,2.2,92,0.00,,,0.00,VWS V13.01,2013-11-30 09:06:00,
2013-11-30 03:11:00,28.1,26.6,30.41,NE,36,0.0,0.0,94,0.00,,,0.00,VWS V13.01,2013-11-30 09:11:00,
2013-11-30 03:15:00,28.1,26.8,30.41,NE,35,0.0,0.0,95,0.00,,,0.00,VWS V13.01,2013-11-30 09:15:00,
2013-11-30 03:20:00,28.1,26.6,30.41,NE,35,0.0,0.0,94,0.00,,,0.00,VWS V13.01,2013-11-30 09:20:00,
2013-11-30 03:25:00,28.1,26.6,30.41,NE,35,0.0,0.0,94,0.00,,,0.00,VWS V13.01,2013-11-30 09:25:00,
2013-11-30 03:30:00,28.1,26.6,30.41,NE,35,0.0,0.0,94,0.00,,,0.00,VWS V13.01,2013-11-30 09:30:00,
2013-11-30 03:35:00,27.7,26.2,30.41,North,2,0.0,0.0,94,0.00,,,0.00,VWS V13.01,2013-11-30 09:35:00,
2013-11-30 03:40:00,27.7,26.2,30.41,North,2,0.0,0.0,94,0.00,,,0.00,VWS V13.01,2013-11-30 09:40:00,
2013-11-30 03:45:00,27.7,26.5,30.41,North,10,0.0,0.0,95,0.00,,,0.00,VWS V13.01,2013-11-30 09:45:00,
2013-11-30 03:50:00,27.5,26.3,30.41,NNE,20,0.0,0.0,95,0.00,,,0.00,VWS V13.01,2013-11-30 09:50:00,
2013-11-30 03:55:00,27.7,27.2,30.41,NNE,20,0.0,0.0,98,0.00,,,0.00,VWS V13.01,2013-11-30 09:55:00,
2013-11-30 04:00:00,27.7,27.2,30.41,NNE,20,0.0,0.0,98,0.00,,,0.00,VWS V13.01,2013-11-30 10:00:00,
2013-11-30 04:05:00,27.7,27.2,30.41,NNE,20,0.0,0.0,98,0.00,,,0.00,VWS V13.01,2013-11-30 10:05:00,
2013-11-30 04:10:00,27.5,27.0,30.41,NNE,20,0.0,0.0,98,0.00,,,0.00,VWS V13.01,2013-11-30 10:10:00,
2013-11-30 04:15:00,27.4,26.6,30.41,NNE,20,0.0,0.0,97,0.00,,,0.00,VWS V13.01,2013-11-30 10:15:00,
2013-11-30 04:20:00,27.4,26.6,30.41,NNE,20,0.0,0.0,97,0.00,,,0.00,VWS V13.01,2013-11-30 10:20:00,
2013-11-30 04:25:00,27.4,26.4,30.41,NNE,20,0.0,0.0,96,0.00,,,0.00,VWS V13.01,2013-11-30 10:25:00,
2013-11-30 04:30:00,27.0,25.8,30.41,NNE,31,0.0,0.0,95,0.00,,,0.00,VWS V13.01,2013-11-30 10:30:00,
2013-11-30 04:35:00,27.0,26.5,30.41,NNE,19,0.0,0.0,98,0.00,,,0.00,VWS V13.01,2013-11-30 10:35:00,
2013-11-30 04:40:00,27.0,27.0,30.41,NNE,18,0.0,0.0,100,0.00,,,0.00,VWS V13.01,2013-11-30 10:40:00,
2013-11-30 04:45:00,27.2,27.2,30.41,NNE,22,0.0,0.0,100,0.00,,,0.00,VWS V13.01,2013-11-30 10:45:00,
2013-11-30 04:50:00,27.2,27.2,30.41,NNE,30,0.0,0.0,100,0.00,,,0.00,VWS V13.01,2013-11-30 10:50:00,
2013-11-30 04:55:00,27.2,27.2,30.41,NNE,31,0.0,0.0,100,0.00,,,0.00,VWS V13.01,2013-11-30 10:55:00,
2013-11-30 05:00:00,27.0,27.0,30.41,NNE,27,2.7,2.7,100,0.00,,,0.00,VWS V13.01,2013-11-30 11:00:00,
2013-11-30 05:05:00,27.0,27.0,30.41,NE,42,2.7,2.7,100,0.00,,,0.00,VWS V13.01,2013-11-30 11:05:00,
2013-11-30 05:10:00,26.8,26.8,30.41,NE,42,2.2,2.7,100,0.00,,,0.00,VWS V13.01,2013-11-30 11:10:00,
2013-11-30 05:15:00,26.6,26.6,30.41,NE,42,2.2,2.2,100,0.00,,,0.00,VWS V13.01,2013-11-30 11:15:00,
2013-11-30 05:20:00,26.5,26.5,30.41,NE,42,0.0,2.2,100,0.00,,,0.00,VWS V13.01,2013-11-30 11:20:00,
2013-11-30 05:25:00,26.5,26.5,30.41,NE,42,2.7,2.7,100,0.00,,,0.00,VWS V13.01,2013-11-30 11:25:00,
2013-11-30 05:30:00,26.5,26.5,30.41,NE,42,2.2,2.7,100,0.00,,,0.00,VWS V13.01,2013-11-30 11:30:00,
2013-11-30 05:35:00,26.6,26.6,30.41,NE,42,2.2,2.7,100,0.00,,,0.00,VWS V13.01,2013-11-30 11:35:00,
2013-11-30 05:40:00,26.8,26.8,30.41,NE,42,0.0,0.0,100,0.00,,,0.00,VWS V13.01,2013-11-30 11:40:00,
2013-11-30 05:45:00,27.0,27.0,30.38,NE,42,0.0,0.0,100,0.00,,,0.00,VWS V13.01,2013-11-30 11:45:00,
2013-11-30 05:50:00,27.0,27.0,30.38,NE,42,0.0,0.0,100,0.00,,,0.00,VWS V13.01,2013-11-30 11:50:00,
2013-11-30 05:55:00,26.8,26.8,30.38,North,7,0.0,0.0,100,0.00,,,0.00,VWS V13.01,2013-11-30 11:55:00,
2013-11-30 06:00:00,27.0,27.0,30.38,North,7,0.0,0.0,100,0.00,,,0.00,VWS V13.01,2013-11-30 12:00:00,
2013-11-30 06:05:00,27.0,27.0,30.38,North,7,0.0,0.0,100,0.00,,,0.00,VWS V13.01,2013-11-30 12:05:00,
2013-11-30 06:10:00,27.0,27.0,30.38,North,7,0.0,0.0,100,0.00,,,0.00,VWS V13.01,2013-11-30 12:10:00,
2013-11-30 06:15:00,27.4,27.4,30.38,North,7,0.0,0.0,100,0.00,,,0.00,VWS V13.01,2013-11-30 12:15:00,
2013-11-30 06:20:00,27.4,27.4,30.38,North,7,0.0,0.0,100,0.00,,,0.00,VWS V13.01,2013-11-30 12:20:00,
2013-11-30 06:25:00,27.5,27.5,30.38,North,7,0.0,0.0,100,0.00,,,0.00,VWS V13.01,2013-11-30 12:25:00,
2013-11-30 06:30:00,27.4,27.4,30.38,NNE,14,0.0,0.0,100,0.00,,,0.00,VWS V13.01,2013-11-30 12:30:00,
2013-11-30 06:35:00,27.4,27.4,30.38,NNE,14,0.0,0.0,100,0.00,,,0.00,VWS V13.01,2013-11-30 12:35:00,
2013-11-30 06:40:00,27.4,27.4,30.38,NNE,19,0.0,0.0,100,0.00,,,0.00,VWS V13.01,2013-11-30 12:40:00,
2013-11-30 06:45:00,27.4,27.4,30.38,NNE,29,2.2,2.2,100,0.00,,,0.00,VWS V13.01,2013-11-30 12:45:00,
2013-11-30 06:50:00,27.4,27.4,30.38,NNE,29,2.2,2.2,100,0.00,,,0.00,VWS V13.01,2013-11-30 12:50:00,
2013-11-30 06:55:00,27.5,27.5,30.38,NNE,29,2.7,2.7,100,0.00,,,0.00,VWS V13.01,2013-11-30 12:55:00,
2013-11-30 07:00:00,27.5,27.5,30.41,NNE,29,2.2,2.7,100,0.00,,,0.00,VWS V13.01,2013-11-30 13:00:00,
2013-11-30 07:05:00,27.4,27.4,30.41,NNE,29,2.7,3.1,100,0.00,,,0.00,VWS V13.01,2013-11-30 13:05:00,
2013-11-30 07:10:00,27.4,27.4,30.41,NNE,29,2.7,3.1,100,0.00,,,0.00,VWS V13.01,2013-11-30 13:10:00,
2013-11-30 07:15:00,27.2,27.2,30.38,NNE,29,2.2,2.2,100,0.00,,,0.00,VWS V13.01,2013-11-30 13:15:00,
2013-11-30 07:20:00,27.2,27.2,30.38,North,11,2.2,2.2,100,0.00,,,0.00,VWS V13.01,2013-11-30 13:20:00,
2013-11-30 07:25:00,27.2,27.2,30.38,NNE,33,0.0,0.0,100,0.00,,,0.00,VWS V13.01,2013-11-30 13:25:00,
2013-11-30 07:30:00,27.2,27.2,30.41,NNE,33,0.0,0.0,100,0.00,,,0.00,VWS V13.01,2013-11-30 13:30:00,
2013-11-30 07:35:00,27.4,27.4,30.41,NNE,33,0.0,0.0,100,0.00,,,0.00,VWS V13.01,2013-11-30 13:35:00,
2013-11-30 07:40:00,27.7,27.7,30.41,NNE,33,0.0,0.0,100,0.00,,,0.00,VWS V13.01,2013-11-30 13:40:00,
2013-11-30 07:45:00,28.1,28.1,30.41,NNE,33,0.0,0.0,100,0.00,,,0.00,VWS V13.01,2013-11-30 13:45:00,
2013-11-30 07:50:00,28.1,28.1,30.41,NNE,33,0.0,0.0,100,0.00,,,0.00,VWS V13.01,2013-11-30 13:50:00,
2013-11-30 07:55:00,28.4,28.4,30.41,NNE,33,0.0,0.0,100,0.00,,,0.00,VWS V13.01,2013-11-30 13:55:00,
2013-11-30 08:00:00,28.8,28.8,30.41,NNE,33,0.0,0.0,100,0.00,,,0.00,VWS V13.01,2013-11-30 14:00:00,
2013-11-30 08:05:00,29.3,29.3,30.41,NNE,33,0.0,0.0,100,0.00,,,0.00,VWS V13.01,2013-11-30 14:05:00,
2013-11-30 08:10:00,29.9,29.9,30.41,NNE,33,0.0,0.0,100,0.00,,,0.00,VWS V13.01,2013-11-30 14:10:00,
2013-11-30 08:15:00,30.4,30.4,30.41,NNE,33,0.0,0.0,100,0.00,,,0.00,VWS V13.01,2013-11-30 14:15:00,
2013-11-30 08:20:00,31.1,31.1,30.41,NNE,33,0.0,0.0,100,0.00,,,0.00,VWS V13.01,2013-11-30 14:20:00,
2013-11-30 08:25:00,31.9,31.9,30.41,NNE,33,0.0,0.0,100,0.00,,,0.00,VWS V13.01,2013-11-30 14:25:00,
2013-11-30 08:30:00,32.6,32.6,30.41,NNE,33,0.0,0.0,100,0.00,,,0.00,VWS V13.01,2013-11-30 14:30:00,
2013-11-30 08:35:00,33.5,33.5,30.41,NNE,33,0.0,0.0,100,0.00,,,0.00,VWS V13.01,2013-11-30 14:35:00,
2013-11-30 08:40:00,34.4,34.4,30.41,NNE,33,0.0,0.0,100,0.00,,,0.00,VWS V13.01,2013-11-30 14:40:00,
2013-11-30 08:45:00,35.1,35.1,30.41,NNE,27,3.6,4.0,100,0.00,,,0.00,VWS V13.01,2013-11-30 14:45:00,
2013-11-30 08:50:00,36.2,33.5,30.41,NNE,27,0.0,0.0,90,0.00,,,0.00,VWS V13.01,2013-11-30 14:50:00,
2013-11-30 08:55:00,36.9,33.4,30.41,NNE,27,0.0,0.0,87,0.00,,,0.00,VWS V13.01,2013-11-30 14:55:00,
2013-11-30 09:00:00,37.6,33.8,30.41,NNE,27,0.0,0.0,86,0.00,,,0.00,VWS V13.01,2013-11-30 15:00:00,
2013-11-30 09:05:00,38.5,34.7,30.41,NNE,27,0.0,0.0,86,0.00,,,0.00,VWS V13.01,2013-11-30 15:05:00,
2013-11-30 09:10:00,39.2,33.3,30.41,NNE,27,0.0,0.0,79,0.00,,,0.00,VWS V13.01,2013-11-30 15:10:00,
2013-11-30 09:14:00,40.1,31.5,30.41,North,8,4.9,4.9,71,0.00,,,0.00,VWS V13.01,2013-11-30 15:14:00,
2013-11-30 09:19:00,40.7,32.4,30.41,NNE,28,2.7,4.0,72,0.00,,,0.00,VWS V13.01,2013-11-30 15:19:00,
2013-11-30 09:24:00,41.4,33.1,30.41,NNE,22,2.7,3.1,72,0.00,,,0.00,VWS V13.01,2013-11-30 15:24:00,
2013-11-30 09:29:00,41.9,33.2,30.41,ENE,72,4.0,4.0,71,0.00,,,0.00,VWS V13.01,2013-11-30 15:29:00,
2013-11-30 09:34:00,42.7,32.8,30.41,ENE,69,2.7,3.6,68,0.00,,,0.00,VWS V13.01,2013-11-30 15:34:00,
2013-11-30 09:39:00,43.4,33.2,30.41,NE,47,5.4,5.8,67,0.00,,,0.00,VWS V13.01,2013-11-30 15:39:00,
2013-11-30 09:44:00,43.9,33.7,30.38,NE,34,4.0,4.0,67,0.00,,,0.00,VWS V13.01,2013-11-30 15:44:00,
2013-11-30 09:49:00,44.1,33.5,30.38,NE,55,2.7,3.1,66,0.00,,,0.00,VWS V13.01,2013-11-30 15:49:00,
2013-11-30 09:54:00,44.8,34.2,30.38,NE,41,3.1,4.0,66,0.00,,,0.00,VWS V13.01,2013-11-30 15:54:00,
2013-11-30 09:59:00,45.4,33.9,30.38,ENE,59,2.7,4.0,64,0.00,,,0.00,VWS V13.01,2013-11-30 15:59:00,
2013-11-30 10:04:00,46.1,34.6,30.38,ENE,68,4.0,5.4,64,0.00,,,0.00,VWS V13.01,2013-11-30 16:04:00,
2013-11-30 10:09:00,46.6,35.1,30.38,NE,40,3.1,3.1,64,0.00,,,0.00,VWS V13.01,2013-11-30 16:09:00,
2013-11-30 10:14:00,47.2,34.8,30.38,NE,47,5.4,5.4,62,0.00,,,0.00,VWS V13.01,2013-11-30 16:14:00,
2013-11-30 10:19:00,47.5,34.3,30.38,ENE,64,2.7,3.1,60,0.00,,,0.00,VWS V13.01,2013-11-30 16:19:00,
2013-11-30 10:24:00,47.3,34.2,30.38,NNE,12,5.8,5.8,60,0.00,,,0.00,VWS V13.01,2013-11-30 16:24:00,
2013-11-30 10:29:00,47.3,34.2,30.38,NNE,13,2.7,2.7,60,0.00,,,0.00,VWS V13.01,2013-11-30 16:29:00,
2013-11-30 10:34:00,47.9,35.1,30.38,SE,132,2.2,4.0,61,0.00,,,0.00,VWS V13.01,2013-11-30 16:34:00,
2013-11-30 10:39:00,48.4,34.8,30.38,NE,51,4.0,5.4,59,0.00,,,0.00,VWS V13.01,2013-11-30 16:39:00,
2013-11-30 10:44:00,48.6,35.4,30.38,ENE,73,4.9,4.9,60,0.00,,,0.00,VWS V13.01,2013-11-30 16:44:00,
2013-11-30 10:49:00,49.3,35.6,30.38,NNE,31,3.6,4.0,59,0.00,,,0.00,VWS V13.01,2013-11-30 16:49:00,
2013-11-30 10:54:00,49.7,35.5,30.38,ENE,75,3.6,3.6,58,0.00,,,0.00,VWS V13.01,2013-11-30 16:54:00,
2013-11-30 10:59:00,50.0,35.9,30.35,NNE,26,3.1,5.8,58,0.00,,,0.00,VWS V13.01,2013-11-30 16:59:00,
2013-11-30 11:04:00,50.0,35.9,30.35,NNE,14,2.7,3.1,58,0.00,,,0.00,VWS V13.01,2013-11-30 17:04:00,
2013-11-30 11:09:00,50.2,36.0,30.35,NE,48,4.9,4.9,58,0.00,,,0.00,VWS V13.01,2013-11-30 17:09:00,
2013-11-30 11:14:00,50.6,36.4,30.35,NE,53,3.6,3.6,58,0.00,,,0.00,VWS V13.01,2013-11-30 17:14:00,
2013-11-30 11:19:00,51.3,36.6,30.35,ENE,58,0.0,2.2,57,0.00,,,0.00,VWS V13.01,2013-11-30 17:19:00,
2013-11-30 11:24:00,51.8,37.1,30.35,ENE,73,2.2,2.2,57,0.00,,,0.00,VWS V13.01,2013-11-30 17:24:00,
2013-11-30 11:29:00,52.4,37.2,30.35,ENE,63,4.5,4.5,56,0.00,,,0.00,VWS V13.01,2013-11-30 17:29:00,
2013-11-30 11:34:00,52.4,37.2,30.35,SE,131,6.3,6.3,56,0.00,,,0.00,VWS V13.01,2013-11-30 17:34:00,
2013-11-30 11:39:00,52.4,37.6,30.35,SE,132,2.7,4.0,57,0.00,,,0.00,VWS V13.01,2013-11-30 17:39:00,
2013-11-30 11:44:00,52.7,37.5,30.32,NNE,23,2.2,2.7,56,0.00,,,0.00,VWS V13.01,2013-11-30 17:44:00,
2013-11-30 11:49:00,53.3,38.0,30.32,NNE,33,2.7,5.4,56,0.00,,,0.00,VWS V13.01,2013-11-30 17:49:00,
2013-11-30 11:54:00,53.6,38.3,30.32,NE,36,4.0,4.0,56,0.00,,,0.00,VWS V13.01,2013-11-30 17:54:00,
2013-11-30 11:59:00,54.0,38.7,30.32,NE,46,4.0,4.5,56,0.00,,,0.00,VWS V13.01,2013-11-30 17:59:00,
2013-11-30 12:04:00,54.4,39.0,30.32,ENE,73,3.6,3.6,56,0.00,,,0.00,VWS V13.01,2013-11-30 18:04:00,
2013-11-30 12:09:00,54.2,38.8,30.32,ENE,74,5.4,6.3,56,0.00,,,0.00,VWS V13.01,2013-11-30 18:09:00,
2013-11-30 12:14:00,54.2,38.8,30.32,NNW,344,3.6,4.0,56,0.00,,,0.00,VWS V13.01,2013-11-30 18:14:00,
2013-11-30 12:19:00,54.5,39.2,30.32,North,5,3.1,4.0,56,0.00,,,0.00,VWS V13.01,2013-11-30 18:19:00,
2013-11-30 12:24:00,54.9,39.0,30.32,NNW,332,2.7,3.6,55,0.00,,,0.00,VWS V13.01,2013-11-30 18:24:00,
2013-11-30 12:29:00,55.3,39.4,30.29,SSE,153,3.1,3.6,55,0.00,,,0.00,VWS V13.01,2013-11-30 18:29:00,
2013-11-30 12:34:00,55.4,39.6,30.29,SE,124,4.0,4.9,55,0.00,,,0.00,VWS V13.01,2013-11-30 18:34:00,
2013-11-30 12:39:00,55.4,39.6,30.29,SE,143,0.0,2.2,55,0.00,,,0.00,VWS V13.01,2013-11-30 18:39:00,
2013-11-30 12:44:00,55.6,39.7,30.29,East,95,4.0,4.9,55,0.00,,,0.00,VWS V13.01,2013-11-30 18:44:00,
2013-11-30 12:49:00,55.8,39.9,30.29,NNE,13,3.1,4.0,55,0.00,,,0.00,VWS V13.01,2013-11-30 18:49:00,
2013-11-30 12:54:00,55.8,39.9,30.29,North,9,3.6,3.6,55,0.00,,,0.00,VWS V13.01,2013-11-30 18:54:00,
2013-11-30 12:59:00,56.0,40.1,30.29,NE,47,0.0,0.0,55,0.00,,,0.00,VWS V13.01,2013-11-30 18:59:00,
2013-11-30 13:04:00,56.3,40.4,30.29,NE,45,0.0,0.0,55,0.00,,,0.00,VWS V13.01,2013-11-30 19:04:00,
2013-11-30 13:09:00,56.5,40.6,30.29,NNE,29,3.6,4.9,55,0.00,,,0.00,VWS V13.01,2013-11-30 19:09:00,
2013-11-30 13:14:00,56.7,40.7,30.26,NE,36,5.4,5.4,55,0.00,,,0.00,VWS V13.01,2013-11-30 19:14:00,
2013-11-30 13:19:00,56.5,40.6,30.26,NNE,17,2.7,3.1,55,0.00,,,0.00,VWS V13.01,2013-11-30 19:19:00,
2013-11-30 13:24:00,56.7,40.7,30.26,North,357,0.0,2.2,55,0.00,,,0.00,VWS V13.01,2013-11-30 19:24:00,
2013-11-30 13:29:00,57.1,41.1,30.26,WNW,303,2.7,2.7,55,0.00,,,0.00,VWS V13.01,2013-11-30 19:29:00,
2013-11-30 13:34:00,57.1,41.1,30.26,NW,307,0.0,2.7,55,0.00,,,0.00,VWS V13.01,2013-11-30 19:34:00,
2013-11-30 13:39:00,57.1,41.1,30.26,NNE,20,0.0,2.2,55,0.00,,,0.00,VWS V13.01,2013-11-30 19:39:00,
2013-11-30 13:44:00,57.4,41.4,30.26,SE,129,4.0,5.4,55,0.00,,,0.00,VWS V13.01,2013-11-30 19:44:00,
2013-11-30 13:49:00,57.2,41.2,30.26,East,90,0.0,0.0,55,0.00,,,0.00,VWS V13.01,2013-11-30 19:49:00,
2013-11-30 13:54:00,57.4,41.9,30.26,NW,312,0.0,0.0,56,0.00,,,0.00,VWS V13.01,2013-11-30 19:54:00,
2013-11-30 13:59:00,57.8,42.2,30.23,SSW,211,3.6,4.0,56,0.00,,,0.00,VWS V13.01,2013-11-30 19:59:00,
2013-11-30 14:04:00,57.8,42.2,30.23,South,173,3.1,3.6,56,0.00,,,0.00,VWS V13.01,2013-11-30 20:04:00,
2013-11-30 14:09:00,58.0,42.4,30.23,SSW,211,0.0,2.7,56,0.00,,,0.00,VWS V13.01,2013-11-30 20:09:00,
2013-11-30 14:14:00,58.1,42.5,30.23,SE,125,3.1,4.0,56,0.00,,,0.00,VWS V13.01,2013-11-30 20:14:00,
2013-11-30 14:19:00,58.3,42.7,30.23,ESE,119,3.6,3.6,56,0.00,,,0.00,VWS V13.01,2013-11-30 20:19:00,
2013-11-30 14:24:00,58.1,42.5,30.23,ENE,70,3.1,3.1,56,0.00,,,0.00,VWS V13.01,2013-11-30 20:24:00,
2013-11-30 14:29:00,58.0,42.4,30.23,South,179,4.9,4.9,56,0.00,,,0.00,VWS V13.01,2013-11-30 20:29:00,
2013-11-30 14:34:00,58.1,42.5,30.23,South,179,3.6,3.6,56,0.00,,,0.00,VWS V13.01,2013-11-30 20:34:00,
2013-11-30 14:39:00,58.1,43.0,30.23,South,171,2.7,2.7,57,0.00,,,0.00,VWS V13.01,2013-11-30 20:39:00,
2013-11-30 14:44:00,58.1,43.0,30.20,SSE,167,2.2,3.1,57,0.00,,,0.00,VWS V13.01,2013-11-30 20:44:00,
2013-11-30 14:49:00,58.1,43.0,30.20,SSE,167,0.0,2.2,57,0.00,,,0.00,VWS V13.01,2013-11-30 20:49:00,
2013-11-30 14:54:00,58.1,43.0,30.20,SE,136,2.2,3.6,57,0.00,,,0.00,VWS V13.01,2013-11-30 20:54:00,
2013-11-30 14:59:00,58.1,43.0,30.20,ENE,65,4.0,4.9,57,0.00,,,0.00,VWS V13.01,2013-11-30 20:59:00,
2013-11-30 15:04:00,58.1,42.5,30.20,East,89,3.6,4.9,56,0.00,,,0.00,VWS V13.01,2013-11-30 21:04:00,
2013-11-30 15:09:00,58.0,42.8,30.20,ESE,111,3.6,3.6,57,0.00,,,0.00,VWS V13.01,2013-11-30 21:09:00,
2013-11-30 15:14:00,57.8,42.7,30.20,East,79,4.0,4.0,57,0.00,,,0.00,VWS V13.01,2013-11-30 21:14:00,
2013-11-30 15:19:00,57.8,42.7,30.20,ESE,115,2.2,3.1,57,0.00,,,0.00,VWS V13.01,2013-11-30 21:19:00,
2013-11-30 15:24:00,58.0,42.8,30.20,East,97,3.1,3.1,57,0.00,,,0.00,VWS V13.01,2013-11-30 21:24:00,
2013-11-30 15:29:00,57.8,42.7,30.20,ENE,67,4.0,4.0,57,0.00,,,0.00,VWS V13.01,2013-11-30 21:29:00,
2013-11-30 15:34:00,57.8,42.7,30.20,ESE,102,2.7,3.6,57,0.00,,,0.00,VWS V13.01,2013-11-30 21:34:00,
2013-11-30 15:39:00,57.8,42.7,30.20,ESE,112,3.1,3.1,57,0.00,,,0.00,VWS V13.01,2013-11-30 21:39:00,
2013-11-30 15:44:00,57.6,42.5,30.20,East,101,3.6,3.6,57,0.00,,,0.00,VWS V13.01,2013-11-30 21:44:00,
2013-11-30 15:49:00,57.6,43.0,30.20,SE,128,2.7,3.1,58,0.00,,,0.00,VWS V13.01,2013-11-30 21:49:00,
2013-11-30 15:53:00,57.4,42.8,30.20,East,88,2.2,2.7,58,0.00,,,0.00,VWS V13.01,2013-11-30 21:53:00,
2013-11-30 15:58:00,57.4,43.2,30.20,SE,130,2.2,3.1,59,0.00,,,0.00,VWS V13.01,2013-11-30 21:58:00,
2013-11-30 16:03:00,57.2,43.1,30.20,SSW,205,3.1,3.1,59,0.00,,,0.00,VWS V13.01,2013-11-30 22:03:00,
2013-11-30 16:08:00,57.1,42.9,30.20,SSE,165,2.7,2.7,59,0.00,,,0.00,VWS V13.01,2013-11-30 22:08:00,
2013-11-30 16:13:00,56.9,42.7,30.20,East,93,2.2,3.6,59,0.00,,,0.00,VWS V13.01,2013-11-30 22:13:00,
2013-11-30 16:18:00,56.9,42.7,30.20,ESE,113,0.0,2.7,59,0.00,,,0.00,VWS V13.01,2013-11-30 22:18:00,
2013-11-30 16:23:00,56.5,43.2,30.20,East,88,3.1,3.1,61,0.00,,,0.00,VWS V13.01,2013-11-30 22:23:00,
2013-11-30 16:28:00,56.2,43.3,30.20,East,88,2.2,2.2,62,0.00,,,0.00,VWS V13.01,2013-11-30 22:28:00,
2013-11-30 16:33:00,55.8,43.4,30.20,East,92,2.7,3.6,63,0.00,,,0.00,VWS V13.01,2013-11-30 22:33:00,
2013-11-30 16:38:00,55.4,43.1,30.20,East,82,4.5,4.5,63,0.00,,,0.00,VWS V13.01,2013-11-30 22:38:00,
2013-11-30 16:43:00,55.1,42.7,30.20,East,89,2.2,3.6,63,0.00,,,0.00,VWS V13.01,2013-11-30 22:43:00,
2013-11-30 16:48:00,54.9,42.6,30.20,East,92,2.7,3.1,63,0.00,,,0.00,VWS V13.01,2013-11-30 22:48:00,
2013-11-30 16:53:00,54.5,42.6,30.20,East,89,3.1,3.1,64,0.00,,,0.00,VWS V13.01,2013-11-30 22:53:00,
2013-11-30 16:58:00,54.2,42.3,30.20,East,98,0.0,0.0,64,0.00,,,0.00,VWS V13.01,2013-11-30 22:58:00,
2013-11-30 17:03:00,54.0,42.1,30.20,ESE,118,2.7,2.7,64,0.00,,,0.00,VWS V13.01,2013-11-30 23:03:00,
2013-11-30 17:08:00,53.8,41.9,30.20,ESE,118,0.0,0.0,64,0.00,,,0.00,VWS V13.01,2013-11-30 23:08:00,
2013-11-30 17:13:00,53.5,41.6,30.20,ESE,120,0.0,0.0,64,0.00,,,0.00,VWS V13.01,2013-11-30 23:13:00,
2013-11-30 17:18:00,53.3,41.4,30.20,ESE,120,0.0,0.0,64,0.00,,,0.00,VWS V13.01,2013-11-30 23:18:00,
2013-11-30 17:23:00,53.1,41.3,30.20,ESE,120,0.0,0.0,64,0.00,,,0.00,VWS V13.01,2013-11-30 23:23:00,
2013-11-30 17:28:00,52.9,41.5,30.20,ESE,120,0.0,0.0,65,0.00,,,0.00,VWS V13.01,2013-11-30 23:28:00,
2013-11-30 17:33:00,52.6,41.5,30.20,ESE,120,0.0,0.0,66,0.00,,,0.00,VWS V13.01,2013-11-30 23:33:00,
2013-11-30 17:38:00,52.0,41.4,30.20,ESE,120,0.0,0.0,67,0.00,,,0.00,VWS V13.01,2013-11-30 23:38:00,
2013-11-30 17:43:00,51.7,41.1,30.20,ESE,120,0.0,0.0,67,0.00,,,0.00,VWS V13.01,2013-11-30 23:43:00,
2013-11-30 17:48:00,51.5,40.9,30.20,ENE,60,2.7,2.7,67,0.00,,,0.00,VWS V13.01,2013-11-30 23:48:00,
2013-11-30 17:53:00,51.3,41.1,30.20,NE,53,0.0,0.0,68,0.00,,,0.00,VWS V13.01,2013-11-30 23:53:00,
2013-11-30 17:58:00,50.9,40.8,30.20,SE,124,4.0,4.0,68,0.00,,,0.00,VWS V13.01,2013-11-30 23:58:00,
2013-11-30 18:03:00,50.9,40.8,30.20,East,93,0.0,0.0,68,0.00,,,0.00,VWS V13.01,2013-12-01 00:03:00,
2013-11-30 18:08:00,50.2,40.5,30.20,ENE,75,0.0,0.0,69,0.00,,,0.00,VWS V13.01,2013-12-01 00:08:00,
2013-11-30 18:13:00,49.7,40.7,30.20,ENE,75,0.0,0.0,71,0.00,,,0.00,VWS V13.01,2013-12-01 00:13:00,
2013-11-30 18:18:00,49.1,40.5,30.20,ENE,75,0.0,0.0,72,0.00,,,0.00,VWS V13.01,2013-12-01 00:18:00,
2013-11-30 18:23:00,48.2,40.7,30.20,ENE,75,0.0,0.0,75,0.00,,,0.00,VWS V13.01,2013-12-01 00:23:00,
2013-11-30 18:28:00,47.5,40.3,30.20,ENE,75,0.0,0.0,76,0.00,,,0.00,VWS V13.01,2013-12-01 00:28:00,
2013-11-30 18:33:00,47.2,40.3,30.20,ENE,75,0.0,0.0,77,0.00,,,0.00,VWS V13.01,2013-12-01 00:33:00,
2013-11-30 18:38:00,46.6,40.1,30.20,ENE,61,0.0,0.0,78,0.00,,,0.00,VWS V13.01,2013-12-01 00:38:00,
2013-11-30 18:43:00,46.1,39.9,30.20,ENE,61,0.0,0.0,79,0.00,,,0.00,VWS V13.01,2013-12-01 00:43:00,
2013-11-30 18:48:00,45.4,39.6,30.20,NE,43,0.0,0.0,80,0.00,,,0.00,VWS V13.01,2013-12-01 00:48:00,
2013-11-30 18:53:00,44.8,39.7,30.20,North,8,0.0,0.0,82,0.00,,,0.00,VWS V13.01,2013-12-01 00:53:00,
2013-11-30 18:58:00,44.5,39.6,30.20,North,8,0.0,0.0,83,0.00,,,0.00,VWS V13.01,2013-12-01 00:58:00,
2013-11-30 19:03:00,44.1,39.0,30.20,NE,35,2.7,2.7,82,0.00,,,0.00,VWS V13.01,2013-12-01 01:03:00,
2013-11-30 19:08:00,43.4,39.5,30.20,NE,39,2.7,3.6,86,0.00,,,0.00,VWS V13.01,2013-12-01 01:08:00,
2013-11-30 19:13:00,43.2,39.9,30.20,NE,39,0.0,2.2,88,0.00,,,0.00,VWS V13.01,2013-12-01 01:13:00,
2013-11-30 19:18:00,43.2,39.9,30.20,NE,39,0.0,0.0,88,0.00,,,0.00,VWS V13.01,2013-12-01 01:18:00,
2013-11-30 19:23:00,43.2,39.9,30.20,NE,39,0.0,0.0,88,0.00,,,0.00,VWS V13.01,2013-12-01 01:23:00,
2013-11-30 19:28:00,43.2,39.6,30.20,NE,39,0.0,0.0,87,0.00,,,0.00,VWS V13.01,2013-12-01 01:28:00,
2013-11-30 19:33:00,42.7,38.8,30.20,NE,39,0.0,0.0,86,0.00,,,0.00,VWS V13.01,2013-12-01 01:33:00,
2013-11-30 19:38:00,42.5,39.2,30.20,NE,39,0.0,0.0,88,0.00,,,0.00,VWS V13.01,2013-12-01 01:38:00,
2013-11-30 19:43:00,41.9,38.9,30.20,NE,39,2.7,2.7,89,0.00,,,0.00,VWS V13.01,2013-12-01 01:43:00,
2013-11-30 19:48:00,41.6,38.3,30.20,NE,39,2.7,2.7,88,0.00,,,0.00,VWS V13.01,2013-12-01 01:48:00,
2013-11-30 19:53:00,41.0,38.0,30.20,NE,39,2.7,2.7,89,0.00,,,0.00,VWS V13.01,2013-12-01 01:53:00,
2013-11-30 19:58:00,40.7,38.3,30.20,NE,39,2.7,3.1,91,0.00,,,0.00,VWS V13.01,2013-12-01 01:58:00,
2013-11-30 20:03:00,40.7,38.8,30.20,NE,39,2.7,2.7,93,0.00,,,0.00,VWS V13.01,2013-12-01 02:03:00,
2013-11-30 20:08:00,40.7,39.9,30.20,NE,39,2.7,2.7,97,0.00,,,0.00,VWS V13.01,2013-12-01 02:08:00,
2013-11-30 20:12:00,40.7,39.4,30.23,NE,39,2.7,2.7,95,0.00,,,0.00,VWS V13.01,2013-12-01 02:12:00,
2013-11-30 20:17:00,40.5,38.9,30.23,NE,39,2.2,2.2,94,0.00,,,0.00,VWS V13.01,2013-12-01 02:17:00,
2013-11-30 20:22:00,40.3,38.5,30.23,NE,39,2.7,2.7,93,0.00,,,0.00,VWS V13.01,2013-12-01 02:22:00,
2013-11-30 20:27:00,40.0,37.8,30.20,NE,39,2.7,2.7,92,0.00,,,0.00,VWS V13.01,2013-12-01 02:27:00,
2013-11-30 20:32:00,39.6,37.5,30.20,NE,39,2.7,2.7,92,0.00,,,0.00,VWS V13.01,2013-12-01 02:32:00,
2013-11-30 20:37:00,39.2,37.7,30.20,NE,39,2.2,2.2,94,0.00,,,0.00,VWS V13.01,2013-12-01 02:37:00,
2013-11-30 20:42:00,39.1,38.0,30.23,NE,39,2.7,2.7,96,0.00,,,0.00,VWS V13.01,2013-12-01 02:42:00,
2013-11-30 20:47:00,39.1,38.5,30.23,NE,39,3.1,3.1,98,0.00,,,0.00,VWS V13.01,2013-12-01 02:47:00,
2013-11-30 20:52:00,39.1,38.8,30.23,NE,39,2.7,3.1,99,0.00,,,0.00,VWS V13.01,2013-12-01 02:52:00,
2013-11-30 20:57:00,39.1,39.1,30.20,NE,39,2.7,2.7,100,0.00,,,0.00,VWS V13.01,2013-12-01 02:57:00,
2013-11-30 21:02:00,39.1,39.1,30.20,NE,39,2.2,2.7,100,0.00,,,0.00,VWS V13.01,2013-12-01 03:02:00,
2013-11-30 21:07:00,39.2,39.2,30.20,NE,39,2.2,2.7,100,0.00,,,0.00,VWS V13.01,2013-12-01 03:07:00,
2013-11-30 21:12:00,38.9,38.6,30.20,NE,39,2.2,2.7,99,0.00,,,0.00,VWS V13.01,2013-12-01 03:12:00,
2013-11-30 21:17:00,38.5,37.7,30.20,NE,39,2.2,2.2,97,0.00,,,0.00,VWS V13.01,2013-12-01 03:17:00,
2013-11-30 21:22:00,38.3,37.6,30.20,NE,39,3.1,3.1,97,0.00,,,0.00,VWS V13.01,2013-12-01 03:22:00,
2013-11-30 21:27:00,38.0,37.2,30.20,NE,39,3.1,3.1,97,0.00,,,0.00,VWS V13.01,2013-12-01 03:27:00,
2013-11-30 21:32:00,37.8,37.3,30.20,NE,39,2.7,2.7,98,0.00,,,0.00,VWS V13.01,2013-12-01 03:32:00,
2013-11-30 21:37:00,37.8,37.8,30.20,NE,39,2.7,2.7,100,0.00,,,0.00,VWS V13.01,2013-12-01 03:37:00,
2013-11-30 21:42:00,38.2,38.2,30.20,NE,39,2.7,3.1,100,0.00,,,0.00,VWS V13.01,2013-12-01 03:42:00,
2013-11-30 21:47:00,38.2,38.2,30.20,NE,39,2.2,2.7,100,0.00,,,0.00,VWS V13.01,2013-12-01 03:47:00,
2013-11-30 21:52:00,38.0,38.0,30.20,NE,39,0.0,0.0,100,0.00,,,0.00,VWS V13.01,2013-12-01 03:52:00,
2013-11-30 21:57:00,38.2,38.2,30.20,NE,39,0.0,0.0,100,0.00,,,0.00,VWS V13.01,2013-12-01 03:57:00,
2013-11-30 22:02:00,38.2,38.2,30.20,NE,39,0.0,0.0,100,0.00,,,0.00,VWS V13.01,2013-12-01 04:02:00,
2013-11-30 22:07:00,38.0,38.0,30.20,NE,39,0.0,0.0,100,0.00,,,0.00,VWS V13.01,2013-12-01 04:07:00,
2013-11-30 22:12:00,38.2,38.2,30.20,NE,39,0.0,0.0,100,0.00,,,0.00,VWS V13.01,2013-12-01 04:12:00,
2013-11-30 22:17:00,38.3,38.3,30.20,NE,39,0.0,0.0,100,0.00,,,0.00,VWS V13.01,2013-12-01 04:17:00,
2013-11-30 22:22:00,38.2,38.2,30.20,NE,39,0.0,0.0,100,0.00,,,0.00,VWS V13.01,2013-12-01 04:22:00,
2013-11-30 22:27:00,38.0,38.0,30.20,NE,39,0.0,0.0,100,0.00,,,0.00,VWS V13.01,2013-12-01 04:27:00,
2013-11-30 22:32:00,38.2,38.2,30.20,NE,39,0.0,0.0,100,0.00,,,0.00,VWS V13.01,2013-12-01 04:32:00,
2013-11-30 22:37:00,38.5,38.5,30.20,NE,39,0.0,0.0,100,0.00,,,0.00,VWS V13.01,2013-12-01 04:37:00,
2013-11-30 22:42:00,38.9,38.9,30.20,NE,39,0.0,0.0,100,0.00,,,0.00,VWS V13.01,2013-12-01 04:42:00,
2013-11-30 22:47:00,38.7,38.7,30.20,NE,39,0.0,0.0,100,0.00,,,0.00,VWS V13.01,2013-12-01 04:47:00,
2013-11-30 22:52:00,38.0,38.0,30.20,NE,39,0.0,0.0,100,0.00,,,0.00,VWS V13.01,2013-12-01 04:52:00,
2013-11-30 22:57:00,37.6,37.4,30.20,NE,39,0.0,0.0,99,0.00,,,0.00,VWS V13.01,2013-12-01 04:57:00,
2013-11-30 23:01:00,37.4,37.4,30.20,NE,39,0.0,0.0,100,0.00,,,0.00,VWS V13.01,2013-12-01 05:01:00,
2013-11-30 23:06:00,37.3,37.3,30.20,NE,54,0.0,0.0,100,0.00,,,0.00,VWS V13.01,2013-12-01 05:06:00,
2013-11-30 23:11:00,37.3,37.3,30.20,NE,54,0.0,0.0,100,0.00,,,0.00,VWS V13.01,2013-12-01 05:11:00,
2013-11-30 23:16:00,38.0,38.0,30.20,NE,35,0.0,0.0,100,0.00,,,0.00,VWS V13.01,2013-12-01 05:16:00,
2013-11-30 23:21:00,38.2,38.2,30.20,NE,35,0.0,0.0,100,0.00,,,0.00,VWS V13.01,2013-12-01 05:21:00,
2013-11-30 23:26:00,38.3,38.3,30.20,NE,35,0.0,0.0,100,0.00,,,0.00,VWS V13.01,2013-12-01 05:26:00,
2013-11-30 23:31:00,38.5,38.5,30.20,NE,35,0.0,0.0,100,0.00,,,0.00,VWS V13.01,2013-12-01 05:31:00,
2013-11-30 23:36:00,38.9,38.9,30.20,NE,36,0.0,0.0,100,0.00,,,0.00,VWS V13.01,2013-12-01 05:36:00,
2013-11-30 23:41:00,39.2,39.2,30.20,NE,36,0.0,0.0,100,0.00,,,0.00,VWS V13.01,2013-12-01 05:41:00,
2013-11-30 23:46:00,39.4,39.4,30.20,NE,36,0.0,0.0,100,0.00,,,0.00,VWS V13.01,2013-12-01 05:46:00,
2013-11-30 23:51:00,39.8,39.8,30.20,NE,36,0.0,0.0,100,0.00,,,0.00,VWS V13.01,2013-12-01 05:51:00,
2013-11-30 23:56:00,40.0,40.0,30.20,NE,36,0.0,0.0,100,0.00,,,0.00,VWS V13.01,2013-12-01 05:56:00,